Retour au catalogue

GOOD ANCESTOR KILAKILA

ActifCommunicationsSSO
NORAD 64528·PAYLOAD·🇸🇧 SB

Lancé Jun 23, 2025 depuis Vandenberg Space Force Base

Loading…

Prochains Passages (prochaines 24 heures)

TLE

FraisSource: Space-Track

Époque: Sep 13, 2026, 21:44 UTC

1 64528U 25135A   26256.90618427  .00006201  00000-0  24949-3 0  9999
2 64528  97.4711  11.8420 0003836 219.7647 140.3310 15.25253974 68401

Suivez GOOD ANCESTOR KILAKILA en temps réel avec AllMySat

Download on the App Store